Location: Rioux
(40.7500°S, 175.7500°E)
Time: 09:43:47
(UTC+00:00)

DELTA 2 R/B (1) - Pass Details

Date: 12 June 2024
Orbit: 788 x 801 km, 39.6° (Epoch: 21 July)

Event Time Altitude Azimuth Distance (km) Brightness Sun altitude
Exits shadow 17:46:13 40° 276° (W) 1,164 3.9 -20.5°
Maximum altitude 17:48:18 80° 357° (N) 812 3.5 -20.1°
Drops below altitude 10° 17:53:53 10° 83° (E) 2,362 7.3 -19.1°
Sets 17:56:22 0° 84° (E) 3,289 8.4 -18.7°
